[Iaude] MPEC C142: 2024 CE3 [a=2.17,e=0.52,i=6.3,H=25.0]

mpec at cfa.harvard.edu mpec at cfa.harvard.edu
Tue Feb 13 02:58:13 EST 2024


M.P.E.C. 2024-C142                            Issued 2024 February 13, 07:56 UT

     The Minor Planet Electronic Circulars contain information on unusual
         minor planets, routine data on comets and natural satellites,
         and occasional editorial announcements.  They are published
    on behalf of Division F of the International Astronomical Union by the
          Minor Planet Center, Smithsonian Astrophysical Observatory,
                          Cambridge, MA 02138, U.S.A.
			  
             Prepared using the Tamkin Foundation Computer Network

                              MPC at CFA.HARVARD.EDU
            URL https://www.minorplanetcenter.net/    ISSN 1523-6714

                                    2024 CE3                                    


Observations:
     K24C03E* C2024 02 11.54158410 49 29.552-15 10 43.55         21.34wXEC142F52
     K24C03E  C2024 02 11.55333610 49 33.085-15 09 50.94         21.55wXEC142F52
     K24C03E  C2024 02 11.57677710 49 40.135-15 08 05.09         21.48wXEC142F52
     K24C03E  C2024 02 11.64620010 50 01.270-15 02 51.14         21.79GVEC142F52
     K24C03E  C2024 02 11.64702010 50 01.551-15 02 46.86         21.39GVEC142F52
     K24C03E |C2024 02 12.22147110 53 12.710-14 19 31.70         21.7 GVEC142807
     K24C03E |C2024 02 12.22980010 53 15.100-14 18 55.40         21.4 GVEC142807
     K24C03E |C2024 02 12.23754010 53 17.320-14 18 22.00         21.5 GVEC142807
     K24C03E  C2024 02 12.50378710 54 39.978-14 00 11.78         21.42GVEC142F52
     K24C03E  C2024 02 12.50460610 54 40.186-14 00 08.42         21.24GVEC142F52
     K24C03E  C2024 02 13.29265710 58 41.137-13 03 55.40         21.3 GVEC142H01
     K24C03E  C2024 02 13.29883410 58 42.792-13 03 29.34         21.3 GVEC142H01
     K24C03E  C2024 02 13.30644410 58 44.830-13 02 57.18         21.6 GVEC142H01
     K24C03E  C2024 02 13.31655610 58 47.522-13 02 14.57         21.4 GVEC142H01

Observer details:
807 Cerro Tololo Observatory, La Serena.  Observers T. Linder, R. Holmes.
    0.61-m f/11 Ritchey-Chretien + CCD.
F52 Pan-STARRS 2, Haleakala.  Observers J. Herman, T. Lowe, P. Minguez, A.
    Schultz, I. Smith.  Measurers K. Chambers, T. de Boer, J. Fairlamb, H.
    Gao, M. Huber, C.-C. Lin, E. Magnier, Y. Ramanjooloo, R. Wainscoat, R.
    Weryk.  1.8-m Ritchey-Chretien + CCD.
H01 Magdalena Ridge Observatory, Socorro.  Observers W. H. Ryan, E. V. Ryan.
    Measurer W. H. Ryan.  2.4-m f/8.9 Ritchey-Chretien + CCD.

Orbital elements:
2024 CE3                                                 Earth MOID = 0.0814 AU
Epoch 2023 Sept. 13.0 TT = JDT 2460200.5                MPC                     
M 320.63241              (2000.0)            P               Q                  
n   0.30844267     Peri.  314.64141     -0.45985590     -0.88739840             
a   2.1694672      Node   162.65483     +0.84246219     -0.44755579             
e   0.5235132      Incl.    6.25958     +0.28069557     -0.11053454             
P   3.20           H   25.09          G   0.15           U   8                  
Residuals in seconds of arc
240211 F52  0.2-  0.2+    240212 807  0.2-  0.2+    240213 H01  0.0   0.1-
240211 F52  0.1+  0.0     240212 807  0.1-  0.2+    240213 H01  0.0   0.0
240211 F52  0.3+  0.2+    240212 807  0.0   0.1-    240213 H01  0.0   0.1+
240211 F52  0.0   0.4-    240212 F52  0.3+  0.1+    240213 H01  0.0   0.0
240211 F52  0.4+  0.1+    240212 F52  0.0   0.1-

Ephemeris:
2024 CE3                 a,e,i = 2.17, 0.52, 6                   q = 1.0337
Date    TT    R. A. (2000) Decl.     Delta      r    Elong.  Phase     V
2024 01 14    06 12 43.0 -36 39 31   0.1008  1.0353   118.4    56.7    22.2
...
2024 01 29    08 56 13.4 -32 06 01   0.08557 1.0414   129.6    46.8    21.6
...
2024 02 06    10 12 47.0 -22 20 58   0.09242 1.0577   139.2    37.5    21.6
...
2024 02 12    10 52 00.6 -14 36 10   0.1044  1.0753   146.2    30.7    21.7
2024 02 13    10 57 11.8 -13 23 48   0.1069  1.0787   147.3    29.7    21.7
2024 02 14    11 02 02.8 -12 13 28   0.1095  1.0822   148.4    28.6    21.7
...
2024 02 20    11 25 04.2 -05 58 08   0.1278  1.1054   154.6    22.5    21.9
...
2024 02 28    11 43 45.7 +00 20 54   0.1581  1.1421   162.4    15.2    22.2
...
2024 03 14    11 58 40.7 +07 25 15   0.2322  1.2248   172.6     6.0    22.8

A. U. Tomatic                (C) Copyright 2024 MPC           M.P.E.C. 2024-C142





More information about the Iaude mailing list